Regional Weather Roundup
Issued by NWS

Home | Current Version | Previous Version | Text Only | Print | Product List | Glossary Off
Versions: 1 2 3 4 5 6 7 8 9 10 11 12 13 14 15 16 17 18 19 20 21 22 23 24 25 26 27 28 29 30 31 32 33 34 35 36 37 38 39 40 41 42 43 44 45 46 47 48 49 50

000
ASUS43 KLOT 230108
RWRIL

ILLINOIS REGIONAL WEATHER ROUNDUP
NATIONAL WEATHER SERVICE CHICAGO/ROMEOVILLE IL
800 PM CDT THU JUN 22 2017

NOTE: "FAIR" INDICATES FEW OR NO CLOUDS BELOW 12,000 FEET WITH NO
SIGNIFICANT WEATHER AND/OR OBSTRUCTIONS TO VISIBILITY.

* THESE STATIONS ARE NOT UNDER NWS QUALITY CONTROL. THEY ALSO MAY NOT
  REPORT WEATHER SUCH AS PRECIPITATION OR FOG.

ILZ001-002-007-009-015-016-024-230200-
NORTHWEST ILLINOIS

CITY           SKY/WX    TMP DP  RH WIND       PRES   REMARKS
MOLINE         CLOUDY    82  70  66 S8        29.68R HX  86
STERLING*      MOCLDY    81  72  74 VRB3      29.71R HX  85
SAVANNA*       CLOUDY    82  71  69 S9        29.68F HX  85
$$

ILZ003-004-008-010-011-017-018-230200-
NORTH CENTRAL ILLINOIS

CITY           SKY/WX    TMP DP  RH WIND       PRES   REMARKS
ROCKFORD       MOCLDY    82  70  66 SW9       29.71F HX  86
FREEPORT*      PTCLDY    79  70  74 SW7       29.71F HX  81
ROCHELLE*      CLOUDY    81  71  72 SW12      29.72S HX  84
DE KALB*       MOCLDY    81  70  71 S14       29.73R HX  84
PERU*          MOCLDY    80  70  72 S9        29.72R HX  83
$$

ILZ005-006-012>014-019>023-230200-
NORTHEAST ILLINOIS

CITY           SKY/WX    TMP DP  RH WIND       PRES   REMARKS
CHICAGO-OHARE  PTCLDY    83  69  62 S16G23    29.71R HX  86
CHICAGO-MIDWAY MOCLDY    82  71  69 S17G26    29.70F HX  86
AURORA         PTCLDY    82  70  66 S15G24    29.72R HX  86
LANSING*       PTCLDY    79  68  69 S16       29.74S HX  82
JOLIET*        PTCLDY    81  74  77 S12       29.71F HX  87
WAUKEGAN       PTCLDY    82  70  66 SW16G22   29.69F HX  86
DUPAGE AIRPORT MOCLDY    81  72  74 S13G21    29.71R HX  85
WHEELING       CLOUDY    83  71  67 S13G20    29.72R HX  87
MORRIS*        PTCLDY    81  71  72 S17G23    29.70F HX  85
ROMEOVILLE*    PTCLDY    80  69  68 S25       29.71F HX  83
NORTHERLY ISL    N/A     81  68  64 S10         N/A  HX  84
$$

LMZ740>746-230200-
SOUTHERN LAKE MICHIGAN

STATION/POSITION SKY/WX   TEMP    WIND        PRES    VSBY  WAVE
                          AIR SEA DIR/SP/G                  HT/PER
                          (F)     (DEG/KT/KT) (MB)    (MI)  (FT/S)
SOUTHERN BUOY              66 61  120/  8/ 10 1006.0          1/ 4
WILMETTE HARBOR            76 65  200/ 14/ 19   N/A           2/ 3
HARRISON CRIB              81     190/ 25/ 27   N/A
BURNHAM HARBOR             80                   N/A
CALUMET HARBOR             81     180/ 14/ 20 1006.0F
BURNS HARBOR               80     190/ 21/ 28 1007.1F
MICHIGAN CITY              79     170/ 15/ 19   N/A
MICHIGAN CITY 6N           76 68  190/ 14/ 19   N/A           2/ 3
ST. JOSEPH                 76 69  210/ 16/ 19 1006.4          2/ 3
$$

ILZ025>027-034>036-040-047-049-050-058-095>099-230200-
WEST-CENTRAL ILLINOIS

CITY           SKY/WX    TMP DP  RH WIND       PRES   REMARKS
QUINCY         CLEAR     81  72  74 S10       29.70S HX  85
GALESBURG*     CLEAR     78  71  78 S7        29.70S HX  81
MACOMB*        CLEAR     80  71  75 S13       29.72S HX  83
JACKSONVILLE*  CLEAR     80  72  76 S9        29.72S HX  84
PITTSFIELD*    CLEAR     81  74  78 S9        29.73S HX  86
$$

ILZ028>032-037-038-041>044-048-051>054-059>061-230200-
CENTRAL ILLINOIS

CITY           SKY/WX    TMP DP  RH WIND       PRES   REMARKS
PONTIAC        PTCLDY    78  75  92 S20       29.74F
BLOOMINGTON    MOCLDY    75  72  90 S17       29.76F
DECATUR        LGT RAIN  74  73  97 S12       29.77F FOG
PEORIA         MOCLDY    80  73  79 S12       29.71F HX  84
LACON*         PTCLDY    81  73  76 S12       29.69F HX  85
LINCOLN*       MOCLDY    77  74  88 S9G18     29.74S
SPRINGFIELD    PTCLDY    79  74  84 SE13      29.73F HX  82
TAYLORVILLE    CLOUDY    75  74  96 S8        29.77S
$$

ILZ033-039-045-046-055>057-062-063-230200-
EAST-CENTRAL ILLINOIS

CITY           SKY/WX    TMP DP  RH WIND       PRES   REMARKS
CHAMPAIGN      LGT RAIN  74  71  91 S10       29.79S FOG
RANTOUL*       MOCLDY    78  72  82 S14G26    29.79S HX  80
MATTOON        CLOUDY    74  73  97 S12       29.79F
PARIS*         CLOUDY    74  71  89 S8        29.82S
$$

ILZ079-100>102-230200-
SOUTHWEST ILLINOIS

CITY           SKY/WX    TMP DP  RH WIND       PRES   REMARKS
ALTON          MOCLDY    81  72  74 S12       29.74F HX  84
BELLEVILLE     CLOUDY    78  74  86 S10       29.76F HX  81
CAHOKIA*       CLOUDY    82  72  71 S8        29.74S HX  87
SPARTA*        CLOUDY    78  73  86 SE6       29.77F HX  80
$$

ILZ064>066-069>071-074>076-080>082-084>086-088>090-092>094-230200-
SOUTH-CENTRAL ILLINOIS

CITY           SKY/WX    TMP DP  RH WIND       PRES   REMARKS
CARBONDALE     PTCLDY    79  76  90 SE8       29.77S HX  83
CAIRO*         CLOUDY    81  77  90 SE3       29.76S HX  88
EFFINGHAM*     CLOUDY    75  74  96 SE8       29.81S
MARION         PTCLDY    79  79 100 SE5       29.78F HX  83
MT. VERNON     CLOUDY    75  73  93 SE5       29.79S
CENTRALIA*     CLOUDY    77  75  93 SE6       29.78S
SALEM*         CLOUDY    77  73  87 SE7       29.79S
METROPOLIS*    MOCLDY    81  76  86 CALM      29.78S HX  87
$$

ILZ067-068-072-073-078-083-087-091-230200-
SOUTHEAST ILLINOIS

CITY           SKY/WX    TMP DP  RH WIND       PRES   REMARKS
LAWRENCEVILLE  LGT RAIN  74  71  91 SE9       29.82S
FLORA*         CLOUDY   N/A N/A N/A SE8       29.81S
FAIRFIELD*     MOCLDY    74  74  98 SE5       29.79S
HARRISBURG*    CLOUDY    77  75  92 E3        29.79F
ROBINSON*      CLOUDY    73  71  92 S9        29.83S
CARMI*         PTCLDY    74  74  97 E3        29.80F
$$

ABBREVIATIONS USED IN REMARKS
   TC - TEMPERATURE IN CELSIUS
  WCI - WIND CHILL INDEX
   HX - HEAT INDEX
  VSB - VISIBILITY
$$





USA.gov is the U.S. government's official web portal to all federal, state and local government web resources and services.